| time (UTC) | temp F | wind direction | speed MPH | gust MPH | rain 1hr in | rain 24hr in | rain mn in | humidity % | barometer mb |
| 20260510093009 | 51 | 35 | 0.0 | 2.0 | 0.00 | 0.38 | 0.00 | 97 | 1008.9 |
| 20260510091513 | 51 | 340 | 0.0 | 2.0 | 0.00 | 0.38 | 0.00 | 97 | 1008.6 |
| 20260510090014 | 51 | 255 | 0.0 | 2.0 | 0.00 | 0.38 | 0.00 | 97 | 1008.6 |
| 20260510084508 | 50 | 132 | 0.0 | 1.0 | 0.00 | 0.38 | 0.00 | 97 | 1008.7 |
| 20260510083007 | 50 | 262 | 0.0 | 1.0 | 0.00 | 0.38 | 0.00 | 97 | 1008.7 |
| 20260510081517 | 51 | 264 | 0.0 | 0.0 | 0.00 | 0.38 | 0.00 | 97 | 1008.8 |
| 20260510080004 | 51 | 321 | 0.0 | 1.0 | 0.00 | 0.38 | 0.00 | 97 | 1008.9 |
| 20260510074504 | 51 | 16 | 0.0 | 1.0 | 0.00 | 0.38 | 0.00 | 97 | 1008.6 |
| 20260510073001 | 51 | 128 | 0.0 | 1.0 | 0.00 | 0.38 | 0.00 | 97 | 1008.8 |
| 20260510071601 | 51 | 58 | 0.0 | 0.0 | 0.00 | 0.38 | 0.00 | 97 | 1008.9 |
| 20260510070059 | 51 | 58 | 0.0 | 1.0 | 0.00 | 0.38 | 0.00 | 97 | 1009.6 |
| 20260510064602 | 51 | 5 | 0.0 | 1.0 | 0.00 | 0.38 | 0.00 | 97 | 1009.7 |
| 20260510063057 | 51 | 255 | 0.0 | 1.0 | 0.00 | 0.38 | 0.00 | 97 | 1009.6 |
| 20260510061556 | 51 | 276 | 0.0 | 0.0 | 0.00 | 0.38 | 0.00 | 97 | 1009.4 |
| 20260510060056 | 51 | 332 | 0.0 | 3.0 | 0.00 | 0.38 | 0.00 | 97 | 1009.4 |
| 20260510054553 | 51 | 263 | 0.0 | 2.0 | 0.00 | 0.38 | 0.00 | 97 | 1009.0 |
| 20260510053106 | 51 | 235 | 0.0 | 4.0 | 0.00 | 0.38 | 0.00 | 97 | 1009.0 |
| 20260510051602 | 52 | 195 | 0.0 | 2.0 | 0.00 | 0.38 | 0.00 | 97 | 1008.9 |
| 20260510050100 | 52 | 70 | 0.0 | 1.0 | 0.00 | 0.38 | 0.00 | 97 | 1008.9 |
| 20260510044602 | 52 | 85 | 0.0 | 3.0 | 0.00 | 0.38 | 0.00 | 97 | 1008.9 |
| 20260510043055 | 52 | 203 | 0.0 | 2.0 | 0.00 | 0.38 | 0.00 | 97 | 1008.9 |
| 20260510041547 | 51 | 51 | 0.0 | 2.0 | 0.00 | 0.38 | 0.00 | 97 | 1009.0 |
| 20260510040047 | 51 | 3 | 0.0 | 1.0 | 0.00 | 0.38 | 0.00 | 97 | 1008.9 |
| 20260510034545 | 52 | 343 | 0.0 | 1.0 | 0.00 | 0.38 | 0.00 | 97 | 1008.8 |
| 20260510033056 | 51 | 180 | 0.0 | 1.0 | 0.00 | 0.38 | 0.00 | 97 | 1008.9 |
| 20260510031541 | 51 | 34 | 0.0 | 1.0 | 0.00 | 0.38 | 0.38 | 97 | 1008.7 |
| 20260510030046 | 51 | 218 | 0.0 | 3.0 | 0.00 | 0.38 | 0.38 | 97 | 1008.8 |
| 20260510024538 | 52 | 122 | 0.0 | 2.0 | 0.00 | 0.38 | 0.38 | 97 | 1008.8 |
| 20260510023037 | 52 | 43 | 0.0 | 0.0 | 0.00 | 0.38 | 0.38 | 97 | 1009.0 |
| 20260510021536 | 52 | 41 | 0.0 | 1.0 | 0.00 | 0.38 | 0.38 | 97 | 1009.0 |
| 20260510020036 | 52 | 69 | 0.0 | 1.0 | 0.00 | 0.38 | 0.38 | 97 | 1008.8 |
| 20260510014539 | 52 | 237 | 0.0 | 3.0 | 0.00 | 0.38 | 0.38 | 97 | 1008.9 |
| 20260510013036 | 52 | 255 | 0.0 | 1.0 | 0.00 | 0.38 | 0.38 | 97 | 1008.8 |
| 20260510011534 | 52 | 322 | 0.0 | 0.0 | 0.00 | 0.38 | 0.38 | 97 | 1009.0 |
| 20260510010033 | 52 | 22 | 0.0 | 0.0 | 0.00 | 0.38 | 0.38 | 97 | 1008.9 |
| 20260510004534 | 52 | 248 | 0.0 | 0.0 | 0.00 | 0.38 | 0.38 | 97 | 1008.7 |
| 20260510003037 | 53 | 181 | 0.0 | 1.0 | 0.00 | 0.38 | 0.38 | 97 | 1008.8 |
| 20260510001531 | 53 | 302 | 0.0 | 1.0 | 0.00 | 0.38 | 0.38 | 97 | 1008.5 |
| 20260510000030 | 53 | 350 | 0.0 | 1.0 | 0.00 | 0.38 | 0.38 | 97 | 1008.2 |
| 20260509234537 | 53 | 290 | 0.0 | 0.0 | 0.00 | 0.38 | 0.38 | 96 | 1008.0 |
| 20260509233029 | 53 | 167 | 0.0 | 0.0 | 0.00 | 0.38 | 0.38 | 97 | 1008.0 |
| 20260509231528 | 54 | 41 | 0.0 | 1.0 | 0.00 | 0.38 | 0.38 | 97 | 1007.7 |
| 20260509230028 | 54 | 269 | 0.0 | 2.0 | 0.00 | 0.38 | 0.38 | 97 | 1007.6 |
| 20260509224525 | 54 | 308 | 0.0 | 1.0 | 0.00 | 0.38 | 0.38 | 97 | 1007.7 |
| 20260509223026 | 54 | 267 | 0.0 | 2.0 | 0.00 | 0.38 | 0.38 | 97 | 1007.8 |
| 20260509221526 | 54 | 278 | 0.0 | 1.0 | 0.00 | 0.38 | 0.38 | 97 | 1007.8 |
| 20260509220022 | 54 | 260 | 0.0 | 0.0 | 0.00 | 0.38 | 0.38 | 97 | 1007.9 |
| 20260509214519 | 54 | 146 | 0.0 | 3.0 | 0.00 | 0.38 | 0.38 | 97 | 1008.1 |
| 20260509213019 | 53 | 208 | 0.0 | 1.0 | 0.00 | 0.38 | 0.38 | 97 | 1008.2 |
| 20260509211517 | 53 | 336 | 0.0 | 1.0 | 0.00 | 0.38 | 0.38 | 97 | 1008.2 |
| 20260509210019 | 52 | 271 | 0.0 | 0.0 | 0.00 | 0.38 | 0.38 | 97 | 1008.2 |
| 20260509204514 | 52 | 224 | 0.0 | 2.0 | 0.01 | 0.38 | 0.38 | 97 | 1008.5 |
| 20260509203011 | 51 | 338 | 0.0 | 0.0 | 0.01 | 0.38 | 0.38 | 97 | 1008.7 |
| 20260509201608 | 51 | 311 | 0.0 | 0.0 | 0.01 | 0.38 | 0.38 | 97 | 1008.9 |
| 20260509200004 | 51 | 324 | 0.0 | 1.0 | 0.02 | 0.38 | 0.38 | 97 | 1009.1 |
| 20260509194502 | 51 | 16 | 0.0 | 1.0 | 0.01 | 0.37 | 0.37 | 97 | 1009.3 |
| 20260509193117 | 50 | 94 | 0.0 | 1.0 | 0.01 | 0.37 | 0.37 | 97 | 1009.4 |
| 20260509191559 | 51 | 360 | 0.0 | 1.0 | 0.02 | 0.37 | 0.37 | 97 | 1009.6 |
| 20260509190105 | 50 | 236 | 0.0 | 1.0 | 0.01 | 0.36 | 0.36 | 97 | 1009.7 |
| 20260509184607 | 50 | 219 | 0.0 | 1.0 | 0.02 | 0.36 | 0.36 | 97 | 1009.6 |
| 20260509183056 | 50 | 15 | 0.0 | 1.0 | 0.03 | 0.36 | 0.36 | 97 | 1009.9 |
| 20260509181553 | 49 | 250 | 0.0 | 1.0 | 0.03 | 0.35 | 0.35 | 97 | 1009.9 |
| 20260509180049 | 49 | 250 | 0.0 | 1.0 | 0.04 | 0.35 | 0.35 | 96 | 1010.0 |
| 20260509174548 | 48 | 101 | 0.0 | 3.0 | 0.04 | 0.34 | 0.34 | 96 | 1010.0 |
| 20260509173057 | 48 | 360 | 0.0 | 1.0 | 0.04 | 0.33 | 0.33 | 96 | 1010.1 |
| 20260509171602 | 48 | 41 | 0.0 | 0.0 | 0.04 | 0.32 | 0.32 | 96 | 1010.3 |
| 20260509170044 | 48 | 326 | 0.0 | 0.0 | 0.04 | 0.31 | 0.31 | 96 | 1010.3 |
| 20260509164540 | 48 | 15 | 0.0 | 1.0 | 0.04 | 0.30 | 0.30 | 96 | 1010.4 |
| 20260509163037 | 48 | 74 | 0.0 | 3.0 | 0.04 | 0.28 | 0.28 | 96 | 1010.7 |
| 20260509161536 | 48 | 328 | 0.0 | 1.0 | 0.05 | 0.28 | 0.28 | 96 | 1011.0 |
| 20260509160032 | 47 | 18 | 0.0 | 1.0 | 0.07 | 0.27 | 0.27 | 96 | 1011.2 |
| 20260509154534 | 47 | 25 | 0.0 | 2.0 | 0.08 | 0.26 | 0.26 | 96 | 1011.5 |
| 20260509153028 | 47 | 32 | 0.0 | 1.0 | 0.09 | 0.24 | 0.24 | 96 | 1011.7 |
| 20260509151524 | 47 | 332 | 0.0 | 0.0 | 0.11 | 0.23 | 0.23 | 96 | 1012.0 |
| 20260509150023 | 46 | 330 | 0.0 | 0.0 | 0.10 | 0.20 | 0.20 | 96 | 1012.2 |
| 20260509144521 | 45 | 332 | 0.0 | 0.0 | 0.09 | 0.17 | 0.17 | 96 | 1012.0 |
| 20260509143025 | 45 | 331 | 0.0 | 0.0 | 0.09 | 0.15 | 0.15 | 95 | 1012.0 |
| 20260509141524 | 45 | 329 | 0.0 | 0.0 | 0.07 | 0.12 | 0.12 | 95 | 1011.9 |
| 20260509140018 | 45 | 328 | 0.0 | 0.0 | 0.05 | 0.09 | 0.09 | 95 | 1011.9 |
| 20260509134517 | 45 | 328 | 0.0 | 0.0 | 0.04 | 0.07 | 0.07 | 95 | 1011.8 |
| 20260509133019 | 45 | 328 | 0.0 | 0.0 | 0.05 | 0.06 | 0.06 | 95 | 1011.8 |
| 20260509131520 | 45 | 328 | 0.0 | 0.0 | 0.05 | 0.05 | 0.05 | 95 | 1011.8 |
| 20260509130013 | 45 | 329 | 0.0 | 0.0 | 0.04 | 0.04 | 0.04 | 95 | 1011.9 |
| 20260509124513 | 45 | 328 | 0.0 | 0.0 | 0.03 | 0.03 | 0.03 | 95 | 1011.9 |
| 20260509123012 | 44 | 328 | 0.0 | 0.0 | 0.01 | 0.01 | 0.01 | 95 | 1012.0 |
| 20260509121519 | 44 | 328 | 0.0 | 0.0 | 0.00 | 0.00 | 0.00 | 95 | 1012.1 |
| 20260509120013 | 0 | 0.0 | 0.0 | 0.00 | 0.00 | 0.00 | 1012.2 | ||
| 20260509114504 | 0 | 0.0 | 0.0 | 0.00 | 0.00 | 0.00 | 1012.2 | ||
| 20260509113100 | 0 | 0.0 | 0.0 | 0.00 | 0.00 | 0.00 | 1012.1 | ||
| 20260509111555 | 0 | 0.0 | 0.0 | 0.00 | 0.00 | 0.00 | 1012.1 | ||
| 20260509110052 | 0 | 0.0 | 0.0 | 0.00 | 0.00 | 0.00 | 1012.0 | ||
| 20260509104547 | 0 | 0.0 | 0.0 | 0.00 | 0.00 | 0.00 | 1011.9 | ||
| 20260509103045 | 0 | 0.0 | 0.0 | 0.00 | 0.00 | 0.00 | 1012.0 | ||
| 20260509101538 | 0 | 0.0 | 0.0 | 0.00 | 0.00 | 0.00 | 1012.2 | ||
| 20260509100049 | 40 | 328 | 0.0 | 0.0 | 0.00 | 0.00 | 0.00 | 95 | 1012.2 |
| 20260509094536 | 40 | 329 | 0.0 | 0.0 | 0.00 | 0.00 | 0.00 | 95 | 1012.2 |